Rochester/St. Mary\'s Hospita, MN

9:23 PM CST on December 11, 2019 (GMT -0600)
Rochester/St. Mary\'s Hospita

Weather History for K9MN - October, 2019

Change the Weather History Date:

Saturday, October 19, 2019

  Actual Average (KRST) Record (KRST)
Temperature  
Mean Temperature 56 °F -  
Max Temperature 63 °F 55 °F 79 °F (1953)
Min Temperature 48 °F 32 °F 13 °F (1972)
Degree Days  
Heating Degree Days 10    
Growing Degree Days 6 (Base 50)    
Moisture  
Dew Point 44 °F    
Average Humidity 72    
Maximum Humidity 92    
Minimum Humidity 44    
Precipitation  
Precipitation 0.09 in - - ()
Sea Level Pressure  
Sea Level Pressure 29.70 in    
Wind  
Wind Speed 9 mph (SSW)    
Max Wind Speed 17 mph    
Max Gust Speed 28 mph    
Visibility 10 miles    
Events      
Averages and records for this station are not official NWS values.
T = Trace of Precipitation, MM = Missing Value Source: NWS Daily Summary

Daily Weather History Graph

Daily Weather History Graph

Search for Another Location

Airport or City:

Astronomy

Oct. 19, 2019 Rise Set
Actual Time 7:29 AM CDT 6:19 PM CDT
Civil Twilight 7:00 AM CDT 6:49 PM CDT
Nautical Twilight 6:26 AM CDT 7:22 PM CDT
Astronomical Twilight 5:53 AM CDT 7:55 PM CDT
Moon 10:20 PM CDT (10/19) 1:10 PM CDT (10/19)
Length of Visible Light 11h 49m
Length of Day
10h 50m
Waning Gibbous, 69% of the Moon is Illuminated
Oct 19
Waning Gibbous
Oct 21
Last Quarter
Oct 27
New
Nov 4
First Quarter
Nov 12
Full

Hourly Weather History & Observations

Time (CDT) Temp. Dew Point Humidity Pressure Visibility Wind Dir Wind Speed Gust Speed Precip Events Conditions
12:15 AM 54.9 °F 42.1 °F 62% 29.67 in 10.0 mi SSE 16.1 mph 27.6 mph N/A   Clear
12:35 AM 54.5 °F 42.1 °F 63% 29.67 in 10.0 mi SSE 17.3 mph 26.5 mph N/A   Clear
12:55 AM 54.0 °F 42.1 °F 64% 29.66 in 10.0 mi SSE 17.3 mph 25.3 mph N/A   Clear
12:56 AM 54.0 °F 42.1 °F 64% 29.66 in 10.0 mi SE 16.1 mph 25.3 mph N/A   Clear
1:15 AM 53.6 °F 42.3 °F 65% 29.66 in 10.0 mi SSE 15.0 mph 25.3 mph N/A   Clear
1:16 AM 53.6 °F 42.3 °F 65% 29.66 in 10.0 mi SE 17.3 mph 25.3 mph N/A   Clear
1:35 AM 53.6 °F 42.3 °F 65% 29.66 in 10.0 mi SSE 11.5 mph 20.7 mph N/A   Clear
1:55 AM 53.1 °F 42.3 °F 67% 29.66 in 10.0 mi SSE 12.7 mph 24.2 mph N/A   Clear
2:15 AM 52.7 °F 42.3 °F 68% 29.66 in 10.0 mi SSE 10.4 mph 18.4 mph N/A   Clear
2:16 AM 52.7 °F 42.3 °F 68% 29.66 in 10.0 mi SSE 10.4 mph 18.4 mph N/A   Clear
2:35 AM 52.5 °F 42.4 °F 69% 29.66 in 10.0 mi SSE 13.8 mph 20.7 mph N/A   Clear
2:36 AM 52.5 °F 42.4 °F 69% 29.66 in 10.0 mi SSE 12.7 mph 20.7 mph N/A   Clear
2:55 AM 52.2 °F 42.8 °F 70% 29.65 in 10.0 mi SSE 11.5 mph 18.4 mph N/A   Clear
3:15 AM 52.0 °F 42.8 °F 71% 29.65 in 10.0 mi South 11.5 mph 17.3 mph N/A   Clear
3:35 AM 52.2 °F 42.8 °F 70% 29.65 in 10.0 mi South 9.2 mph 20.7 mph N/A   Clear
3:36 AM 52.2 °F 42.8 °F 70% 29.65 in 10.0 mi South 9.2 mph 20.7 mph N/A   Scattered Clouds
3:55 AM 52.0 °F 43.0 °F 71% 29.65 in 10.0 mi South 8.1 mph - N/A   Mostly Cloudy
3:56 AM 52.0 °F 43.2 °F 72% 29.65 in 10.0 mi South 6.9 mph - N/A   Mostly Cloudy
4:15 AM 52.0 °F 44.2 °F 75% 29.65 in 10.0 mi South 5.8 mph - N/A   Overcast
4:35 AM 51.8 °F 44.8 °F 77% 29.66 in 10.0 mi South 5.8 mph - N/A   Mostly Cloudy
4:55 AM 51.4 °F 44.8 °F 78% 29.65 in 10.0 mi South 6.9 mph - N/A   Mostly Cloudy
4:56 AM 51.4 °F 44.8 °F 78% 29.65 in 10.0 mi South 6.9 mph - N/A   Mostly Cloudy
5:15 AM 51.8 °F 44.8 °F 77% 29.66 in 10.0 mi South 8.1 mph - N/A   Overcast
5:16 AM 51.8 °F 44.8 °F 77% 29.65 in 10.0 mi South 9.2 mph - N/A   Overcast
5:35 AM 52.0 °F 44.8 °F 76% 29.66 in 10.0 mi SSW 8.1 mph - N/A   Overcast
5:55 AM 51.3 °F 44.8 °F 78% 29.65 in 10.0 mi SSE 4.6 mph - N/A   Overcast
6:15 AM 51.1 °F 45.0 °F 80% 29.64 in 10.0 mi SSE 5.8 mph - N/A   Overcast
6:16 AM 51.1 °F 45.0 °F 80% 29.65 in 10.0 mi SSE 4.6 mph - N/A   Overcast
6:35 AM 51.4 °F 45.0 °F 79% 29.65 in 10.0 mi South 5.8 mph - N/A   Overcast
6:36 AM 51.3 °F 45.0 °F 79% 29.65 in 10.0 mi South 5.8 mph - N/A   Overcast
6:55 AM 50.9 °F 45.0 °F 80% 29.64 in 10.0 mi SSE 4.6 mph - N/A   Overcast
7:15 AM 50.9 °F 45.0 °F 80% 29.66 in 10.0 mi SSE 6.9 mph - N/A   Overcast
7:35 AM 50.9 °F 45.0 °F 80% 29.68 in 10.0 mi South 6.9 mph - N/A   Overcast
7:36 AM 50.9 °F 45.0 °F 80% 29.68 in 10.0 mi South 6.9 mph - N/A   Overcast
7:55 AM 50.5 °F 45.1 °F 82% 29.70 in 10.0 mi SSW 11.5 mph 16.1 mph N/A   Overcast
7:56 AM 50.5 °F 45.1 °F 82% 29.70 in 10.0 mi SSW 8.1 mph 16.1 mph N/A   Overcast
8:15 AM 50.5 °F 45.9 °F 84% 29.69 in 10.0 mi WSW 6.9 mph 16.1 mph N/A   Overcast
8:35 AM 50.0 °F 46.8 °F 89% 29.70 in 10.0 mi WSW 8.1 mph - 0.01 in   Overcast
8:55 AM 49.6 °F 47.3 °F 92% 29.70 in 10.0 mi WSW 8.1 mph - 0.03 in   Overcast
8:56 AM 49.6 °F 47.3 °F 92% 29.70 in 10.0 mi West 8.1 mph - 0.03 in   Overcast
9:15 AM 49.5 °F 47.3 °F 92% 29.71 in 10.0 mi WSW 6.9 mph - 0.02 in   Overcast
9:16 AM 49.5 °F 47.3 °F 92% 29.71 in 10.0 mi WSW 6.9 mph - 0.02 in   Overcast
9:35 AM 49.5 °F 47.3 °F 92% 29.72 in 10.0 mi West 5.8 mph - 0.03 in   Overcast
9:55 AM 49.5 °F 47.1 °F 92% 29.73 in 10.0 mi West 8.1 mph - 0.04 in   Overcast
10:15 AM 49.3 °F 46.9 °F 92% 29.72 in 10.0 mi WNW 4.6 mph - 0.01 in   Overcast
10:16 AM 49.3 °F 46.9 °F 92% 29.72 in 10.0 mi WNW 4.6 mph - 0.01 in   Overcast
10:35 AM 49.1 °F 46.9 °F 92% 29.73 in 10.0 mi West 4.6 mph - 0.01 in   Overcast
10:36 AM 49.3 °F 47.1 °F 92% 29.73 in 10.0 mi West 5.8 mph - 0.01 in   Overcast
10:55 AM 49.6 °F 47.1 °F 91% 29.73 in 10.0 mi Calm Calm - 0.01 in   Overcast
11:15 AM 50.0 °F 47.3 °F 90% 29.72 in 10.0 mi West 3.5 mph - N/A   Overcast
11:35 AM 50.7 °F 47.8 °F 90% 29.72 in 10.0 mi West 3.5 mph - N/A   Overcast
11:36 AM 50.7 °F 47.8 °F 90% 29.72 in 10.0 mi West 3.5 mph - N/A   Overcast
11:55 AM 50.9 °F 47.5 °F 88% 29.73 in 10.0 mi Calm Calm - N/A   Overcast
11:56 AM 50.9 °F 47.5 °F 88% 29.73 in 10.0 mi West 3.5 mph - N/A   Overcast
12:15 PM 51.4 °F 47.8 °F 87% 29.73 in 10.0 mi Calm Calm - 0.01 in   Overcast
12:35 PM 52.0 °F 48.4 °F 88% 29.72 in 10.0 mi West 3.5 mph - 0.01 in   Overcast
12:55 PM 53.4 °F 48.2 °F 82% 29.73 in 10.0 mi Calm Calm - 0.01 in   Mostly Cloudy
12:56 PM 53.6 °F 48.2 °F 82% 29.73 in 10.0 mi Calm Calm - 0.01 in   Mostly Cloudy
1:15 PM 55.0 °F 48.6 °F 79% 29.72 in 10.0 mi Calm Calm - N/A   Scattered Clouds
1:35 PM 56.8 °F 48.0 °F 72% 29.72 in 10.0 mi Calm Calm - N/A   Clear
1:55 PM 58.5 °F 46.6 °F 65% 29.72 in 10.0 mi Calm Calm - N/A   Clear
2:15 PM 59.2 °F 45.1 °F 60% 29.72 in 10.0 mi West 4.6 mph - N/A   Clear
2:16 PM 59.2 °F 45.0 °F 59% 29.72 in 10.0 mi WSW 3.5 mph - N/A   Clear
2:35 PM 60.1 °F 46.0 °F 60% 29.71 in 10.0 mi WSW 3.5 mph - N/A   Clear
2:36 PM 60.3 °F 46.0 °F 59% 29.71 in 10.0 mi West 3.5 mph - N/A   Clear
2:55 PM 60.8 °F 45.1 °F 56% 29.71 in 10.0 mi West 3.5 mph - N/A   Clear
3:15 PM 61.0 °F 43.2 °F 52% 29.70 in 10.0 mi WSW 5.8 mph - N/A   Clear
3:35 PM 61.7 °F 43.2 °F 51% 29.70 in 10.0 mi WSW 6.9 mph - N/A   Clear
3:36 PM 61.7 °F 42.8 °F 50% 29.70 in 10.0 mi SW 5.8 mph - N/A   Clear
3:55 PM 62.4 °F 41.9 °F 47% 29.70 in 10.0 mi WSW 5.8 mph - N/A   Clear
4:15 PM 63.0 °F 41.5 °F 45% 29.70 in 10.0 mi West 6.9 mph - N/A   Clear
4:35 PM 63.7 °F 41.9 °F 45% 29.70 in 10.0 mi WSW 6.9 mph - N/A   Clear
4:36 PM 63.7 °F 41.9 °F 45% 29.70 in 10.0 mi WSW 5.8 mph - N/A   Clear
4:55 PM 63.5 °F 41.4 °F 44% 29.70 in 10.0 mi SSW 5.8 mph - N/A   Clear
4:56 PM 63.3 °F 41.2 °F 44% 29.71 in 10.0 mi SW 4.6 mph - N/A   Clear
5:15 PM 63.5 °F 41.7 °F 45% 29.71 in 10.0 mi SW 3.5 mph - N/A   Clear
5:35 PM 62.8 °F 41.2 °F 45% 29.71 in 10.0 mi SSW 3.5 mph - N/A   Clear
5:55 PM 61.7 °F 41.2 °F 47% 29.71 in 10.0 mi SSE 4.6 mph - N/A   Clear
5:56 PM 61.5 °F 41.2 °F 47% 29.71 in 10.0 mi South 4.6 mph - N/A   Clear
6:15 PM 60.4 °F 41.5 °F 50% 29.71 in 10.0 mi SSE 5.8 mph - N/A   Clear
6:16 PM 60.3 °F 41.4 °F 50% 29.71 in 10.0 mi SSE 5.8 mph - N/A   Clear
6:35 PM 59.2 °F 41.9 °F 53% 29.72 in 10.0 mi SSE 6.9 mph - N/A   Clear
6:55 PM 58.1 °F 42.1 °F 55% 29.72 in 10.0 mi SSE 6.9 mph - N/A   Clear
7:15 PM 57.2 °F 42.1 °F 57% 29.73 in 10.0 mi SSE 5.8 mph - N/A   Clear
7:16 PM 57.2 °F 42.1 °F 57% 29.73 in 10.0 mi SSE 6.9 mph - N/A   Clear
7:35 PM 55.8 °F 42.6 °F 61% 29.73 in 10.0 mi SSE 6.9 mph - N/A   Clear
7:55 PM 55.4 °F 42.1 °F 61% 29.73 in 10.0 mi SSE 6.9 mph - N/A   Clear
8:15 PM 53.8 °F 42.8 °F 66% 29.74 in 10.0 mi SE 4.6 mph - N/A   Clear
8:35 PM 51.8 °F 43.2 °F 72% 29.74 in 10.0 mi SE 4.6 mph - N/A   Clear
8:36 PM 51.8 °F 43.2 °F 72% 29.74 in 10.0 mi SSE 4.6 mph - N/A   Clear
8:55 PM 51.8 °F 42.3 °F 70% 29.75 in 10.0 mi SSE 4.6 mph - N/A   Clear
8:56 PM 51.8 °F 42.3 °F 70% 29.75 in 10.0 mi SSE 4.6 mph - N/A   Clear
9:15 PM 50.7 °F 42.1 °F 72% 29.75 in 10.0 mi SSE 4.6 mph - N/A   Clear
9:35 PM 51.4 °F 41.5 °F 69% 29.75 in 10.0 mi SSW 5.8 mph - N/A   Clear
9:55 PM 50.7 °F 42.6 °F 74% 29.75 in 10.0 mi SSW 4.6 mph - N/A   Clear
9:56 PM 50.7 °F 42.6 °F 74% 29.75 in 10.0 mi SSW 4.6 mph - N/A   Clear
10:15 PM 50.9 °F 44.1 °F 77% 29.76 in 10.0 mi SW 3.5 mph - N/A   Clear
10:16 PM 50.9 °F 44.1 °F 77% 29.76 in 10.0 mi SW 3.5 mph - N/A   Clear
10:35 PM 50.2 °F 44.2 °F 80% 29.76 in 10.0 mi Calm Calm - N/A   Clear
10:55 PM 49.3 °F 44.8 °F 84% 29.76 in 10.0 mi Calm Calm - N/A   Clear
11:15 PM 49.1 °F 45.3 °F 87% 29.77 in 10.0 mi Calm Calm - N/A   Clear
11:16 PM 49.1 °F 45.3 °F 87% 29.77 in 10.0 mi Calm Calm - N/A   Clear
11:35 PM 48.6 °F 45.5 °F 89% 29.78 in 10.0 mi Calm Calm - N/A   Clear
11:36 PM 48.6 °F 45.3 °F 89% 29.78 in 10.0 mi Calm Calm - N/A   Clear
11:55 PM 48.6 °F 45.7 °F 90% 29.78 in 10.0 mi SSW 3.5 mph - N/A   Clear
11:56 PM 48.7 °F 45.7 °F 89% 29.78 in 10.0 mi SSW 3.5 mph - N/A   Clear